| time (UTC) | temp F | wind direction | speed MPH | gust MPH | rain 1hr in | rain 24hr in | rain mn in | humidity % | barometer mb |
| 20260507204605 | 76 | 262 | 2.0 | 8.0 | 0.00 | 0.00 | 0.00 | 35 | 1014.6 |
| 20260507204105 | 75 | 256 | 3.0 | 13.0 | 0.00 | 0.00 | 0.00 | 36 | 1014.8 |
| 20260507203604 | 75 | 237 | 7.0 | 13.0 | 0.00 | 0.00 | 0.00 | 35 | 1014.9 |
| 20260507203105 | 75 | 316 | 6.0 | 13.0 | 0.00 | 0.00 | 0.00 | 35 | 1014.9 |
| 20260507202605 | 74 | 161 | 6.0 | 16.0 | 0.00 | 0.00 | 0.00 | 35 | 1015.0 |
| 20260507202105 | 74 | 224 | 9.0 | 16.0 | 0.00 | 0.00 | 0.00 | 36 | 1015.2 |
| 20260507201105 | 74 | 172 | 3.0 | 18.0 | 0.00 | 0.00 | 0.00 | 37 | 1015.4 |
| 20260507200105 | 74 | 261 | 5.0 | 16.0 | 0.00 | 0.00 | 0.00 | 39 | 1015.6 |
| 20260507195105 | 74 | 260 | 7.0 | 15.0 | 0.00 | 0.00 | 0.00 | 39 | 1015.8 |
| 20260507194605 | 73 | 207 | 9.0 | 15.0 | 0.00 | 0.00 | 0.00 | 38 | 1015.8 |
| 20260507193605 | 72 | 243 | 6.0 | 15.0 | 0.00 | 0.00 | 0.00 | 40 | 1016.0 |
| 20260507193105 | 72 | 272 | 8.0 | 17.0 | 0.00 | 0.00 | 0.00 | 41 | 1016.1 |
| 20260507192605 | 72 | 237 | 6.0 | 17.0 | 0.00 | 0.00 | 0.00 | 39 | 1016.2 |
| 20260507192106 | 72 | 228 | 13.0 | 17.0 | 0.00 | 0.00 | 0.00 | 40 | 1016.2 |
| 20260507191605 | 72 | 213 | 5.0 | 17.0 | 0.00 | 0.00 | 0.00 | 39 | 1016.4 |
| 20260507191105 | 72 | 262 | 7.0 | 15.0 | 0.00 | 0.00 | 0.00 | 40 | 1016.5 |
| 20260507190605 | 72 | 239 | 9.0 | 15.0 | 0.00 | 0.00 | 0.00 | 37 | 1016.5 |
| 20260507190105 | 71 | 255 | 7.0 | 18.0 | 0.00 | 0.00 | 0.00 | 41 | 1016.6 |
| 20260507185605 | 71 | 208 | 3.0 | 18.0 | 0.00 | 0.00 | 0.00 | 40 | 1016.7 |
| 20260507185105 | 72 | 244 | 10.0 | 18.0 | 0.00 | 0.00 | 0.00 | 41 | 1016.8 |
| 20260507184605 | 71 | 226 | 10.0 | 18.0 | 0.00 | 0.00 | 0.00 | 40 | 1016.8 |
| 20260507184105 | 70 | 183 | 3.0 | 15.0 | 0.00 | 0.00 | 0.00 | 43 | 1017.0 |
| 20260507183605 | 70 | 241 | 10.0 | 15.0 | 0.00 | 0.00 | 0.00 | 43 | 1017.0 |
| 20260507183105 | 71 | 216 | 7.0 | 13.0 | 0.00 | 0.00 | 0.00 | 41 | 1017.1 |
| 20260507182605 | 70 | 240 | 2.0 | 13.0 | 0.00 | 0.00 | 0.00 | 43 | 1017.1 |
| 20260507182105 | 70 | 247 | 8.0 | 13.0 | 0.00 | 0.00 | 0.00 | 41 | 1017.3 |
| 20260507181105 | 69 | 238 | 7.0 | 18.0 | 0.00 | 0.00 | 0.00 | 45 | 1017.5 |
| 20260507180605 | 69 | 228 | 12.0 | 18.0 | 0.00 | 0.00 | 0.00 | 42 | 1017.5 |
| 20260507175605 | 69 | 221 | 5.0 | 21.0 | 0.00 | 0.00 | 0.00 | 44 | 1017.7 |
| 20260507174605 | 69 | 222 | 7.0 | 13.0 | 0.00 | 0.00 | 0.00 | 44 | 1017.9 |
| 20260507173605 | 68 | 234 | 9.0 | 18.0 | 0.00 | 0.00 | 0.00 | 46 | 1018.0 |
| 20260507173105 | 68 | 224 | 9.0 | 18.0 | 0.00 | 0.00 | 0.00 | 47 | 1018.1 |
| 20260507172105 | 68 | 223 | 10.0 | 16.0 | 0.00 | 0.00 | 0.00 | 46 | 1018.3 |
| 20260507171105 | 67 | 243 | 6.0 | 13.0 | 0.00 | 0.00 | 0.00 | 49 | 1018.5 |
| 20260507170605 | 67 | 287 | 7.0 | 13.0 | 0.00 | 0.00 | 0.00 | 48 | 1018.6 |
| 20260507170105 | 67 | 261 | 9.0 | 13.0 | 0.00 | 0.00 | 0.00 | 48 | 1018.6 |
| 20260507165105 | 67 | 262 | 6.0 | 14.0 | 0.00 | 0.00 | 0.00 | 51 | 1018.9 |
| 20260507164605 | 66 | 187 | 6.0 | 15.0 | 0.00 | 0.00 | 0.00 | 49 | 1018.9 |
| 20260507164104 | 66 | 212 | 9.0 | 15.0 | 0.00 | 0.00 | 0.00 | 49 | 1019.1 |
| 20260507163605 | 65 | 221 | 7.0 | 14.0 | 0.00 | 0.00 | 0.00 | 48 | 1019.1 |
| 20260507163105 | 65 | 187 | 5.0 | 14.0 | 0.00 | 0.00 | 0.00 | 50 | 1019.1 |
| 20260507162605 | 66 | 214 | 7.0 | 14.0 | 0.00 | 0.00 | 0.00 | 50 | 1019.2 |
| 20260507162105 | 65 | 206 | 7.0 | 15.0 | 0.00 | 0.00 | 0.00 | 52 | 1019.2 |
| 20260507161605 | 64 | 250 | 7.0 | 16.0 | 0.00 | 0.00 | 0.00 | 49 | 1019.3 |
| 20260507160106 | 63 | 225 | 9.0 | 15.0 | 0.00 | 0.00 | 0.00 | 50 | 1019.3 |
| 20260507155605 | 63 | 247 | 9.0 | 15.0 | 0.00 | 0.00 | 0.00 | 50 | 1019.4 |
| 20260507155105 | 63 | 221 | 7.0 | 15.0 | 0.00 | 0.00 | 0.00 | 50 | 1019.5 |
| 20260507154605 | 63 | 193 | 7.0 | 15.0 | 0.00 | 0.00 | 0.00 | 52 | 1019.5 |
| 20260507154105 | 63 | 223 | 7.0 | 15.0 | 0.00 | 0.00 | 0.00 | 50 | 1019.5 |
| 20260507152605 | 62 | 221 | 7.0 | 13.0 | 0.00 | 0.00 | 0.00 | 51 | 1019.7 |
| 20260507151605 | 61 | 217 | 7.0 | 12.0 | 0.00 | 0.00 | 0.00 | 53 | 1019.9 |
| 20260507151105 | 62 | 209 | 9.0 | 12.0 | 0.00 | 0.00 | 0.00 | 53 | 1019.9 |
| 20260507150605 | 61 | 205 | 9.0 | 12.0 | 0.00 | 0.00 | 0.00 | 55 | 1020.0 |
| 20260507145605 | 60 | 195 | 7.0 | 13.0 | 0.00 | 0.00 | 0.00 | 55 | 1020.1 |
| 20260507144605 | 60 | 214 | 8.0 | 12.0 | 0.00 | 0.00 | 0.00 | 55 | 1020.3 |
| 20260507144105 | 60 | 224 | 8.0 | 12.0 | 0.00 | 0.00 | 0.00 | 55 | 1020.4 |
| 20260507143605 | 59 | 223 | 9.0 | 12.0 | 0.00 | 0.00 | 0.00 | 55 | 1020.4 |
| 20260507142605 | 59 | 236 | 8.0 | 12.0 | 0.00 | 0.00 | 0.00 | 56 | 1020.5 |
| 20260507142105 | 59 | 199 | 5.0 | 12.0 | 0.00 | 0.00 | 0.00 | 57 | 1020.5 |
| 20260507141605 | 58 | 237 | 7.0 | 12.0 | 0.00 | 0.00 | 0.00 | 59 | 1020.5 |
| 20260507141105 | 58 | 234 | 5.0 | 8.0 | 0.00 | 0.00 | 0.00 | 61 | 1020.5 |
| 20260507140605 | 57 | 230 | 3.0 | 8.0 | 0.00 | 0.00 | 0.00 | 64 | 1020.5 |
| 20260507135605 | 56 | 225 | 4.0 | 8.0 | 0.00 | 0.00 | 0.00 | 67 | 1020.7 |
| 20260507135105 | 56 | 239 | 3.0 | 6.0 | 0.00 | 0.00 | 0.00 | 68 | 1020.7 |
| 20260507134605 | 55 | 251 | 2.0 | 6.0 | 0.00 | 0.00 | 0.00 | 70 | 1020.8 |
| 20260507133605 | 54 | 280 | 2.0 | 6.0 | 0.00 | 0.00 | 0.00 | 72 | 1020.8 |
| 20260507132605 | 53 | 283 | 2.0 | 6.0 | 0.00 | 0.00 | 0.00 | 74 | 1020.7 |
| 20260507131104 | 51 | 246 | 3.0 | 5.0 | 0.00 | 0.00 | 0.00 | 78 | 1020.6 |
| 20260507130105 | 50 | 240 | 3.0 | 5.0 | 0.00 | 0.00 | 0.00 | 81 | 1020.6 |
| 20260507125605 | 49 | 253 | 2.0 | 3.0 | 0.00 | 0.00 | 0.00 | 83 | 1020.6 |
| 20260507125105 | 48 | 237 | 2.0 | 3.0 | 0.00 | 0.00 | 0.00 | 84 | 1020.5 |
| 20260507124605 | 47 | 232 | 0.0 | 3.0 | 0.00 | 0.00 | 0.00 | 84 | 1020.4 |
| 20260507124105 | 47 | 232 | 1.0 | 3.0 | 0.00 | 0.00 | 0.00 | 84 | 1020.4 |
| 20260507123605 | 47 | 223 | 2.0 | 5.0 | 0.00 | 0.00 | 0.00 | 84 | 1020.4 |
| 20260507123105 | 46 | 236 | 3.0 | 5.0 | 0.00 | 0.00 | 0.00 | 85 | 1020.3 |
| 20260507122104 | 45 | 239 | 0.0 | 0.0 | 0.00 | 0.00 | 0.00 | 85 | 1020.3 |
| 20260507121605 | 45 | 232 | 0.0 | 0.0 | 0.00 | 0.00 | 0.00 | 85 | 1020.2 |
| 20260507121105 | 45 | 230 | 0.0 | 0.0 | 0.00 | 0.00 | 0.00 | 84 | 1020.1 |
| 20260507120105 | 45 | 231 | 0.0 | 0.0 | 0.00 | 0.00 | 0.00 | 83 | 1020.0 |
| 20260507115605 | 45 | 231 | 0.0 | 0.0 | 0.00 | 0.00 | 0.00 | 83 | 1019.9 |
| 20260507115104 | 45 | 231 | 0.0 | 0.0 | 0.00 | 0.00 | 0.00 | 83 | 1019.8 |
| 20260507114605 | 45 | 235 | 0.0 | 0.0 | 0.00 | 0.00 | 0.00 | 83 | 1019.8 |
| 20260507114105 | 45 | 254 | 0.0 | 0.0 | 0.00 | 0.00 | 0.00 | 83 | 1019.9 |
| 20260507113605 | 45 | 254 | 0.0 | 0.0 | 0.00 | 0.00 | 0.00 | 83 | 1019.9 |
| 20260507111604 | 45 | 281 | 0.0 | 0.0 | 0.00 | 0.00 | 0.00 | 84 | 1019.8 |
| 20260507111105 | 45 | 281 | 0.0 | 0.0 | 0.00 | 0.00 | 0.00 | 84 | 1019.7 |
| 20260507110605 | 45 | 281 | 0.0 | 0.0 | 0.00 | 0.00 | 0.00 | 84 | 1019.7 |
| 20260507110104 | 45 | 281 | 0.0 | 0.0 | 0.00 | 0.00 | 0.00 | 84 | 1019.8 |
| 20260507105105 | 45 | 281 | 0.0 | 0.0 | 0.00 | 0.00 | 0.00 | 84 | 1019.7 |
| 20260507104605 | 45 | 281 | 0.0 | 0.0 | 0.00 | 0.00 | 0.00 | 84 | 1019.7 |
| 20260507103605 | 45 | 281 | 0.0 | 0.0 | 0.00 | 0.00 | 0.00 | 84 | 1019.9 |
| 20260507103105 | 45 | 281 | 0.0 | 0.0 | 0.00 | 0.00 | 0.00 | 84 | 1019.9 |
| 20260507102604 | 45 | 281 | 0.0 | 0.0 | 0.00 | 0.00 | 0.00 | 84 | 1019.8 |
| 20260507102104 | 45 | 281 | 0.0 | 0.0 | 0.00 | 0.00 | 0.00 | 84 | 1019.7 |
| 20260507101605 | 45 | 281 | 0.0 | 0.0 | 0.00 | 0.00 | 0.00 | 83 | 1019.7 |
| 20260507101105 | 45 | 281 | 0.0 | 0.0 | 0.00 | 0.00 | 0.00 | 84 | 1019.7 |
| 20260507100605 | 45 | 290 | 0.0 | 0.0 | 0.00 | 0.00 | 0.00 | 84 | 1019.7 |
| 20260507100106 | 45 | 290 | 0.0 | 0.0 | 0.00 | 0.00 | 0.00 | 83 | 1019.7 |
| 20260507095604 | 45 | 290 | 0.0 | 0.0 | 0.00 | 0.00 | 0.00 | 84 | 1019.7 |
| 20260507095105 | 45 | 290 | 0.0 | 0.0 | 0.00 | 0.00 | 0.00 | 84 | 1019.5 |
| 20260507094104 | 44 | 290 | 0.0 | 0.0 | 0.00 | 0.00 | 0.00 | 84 | 1019.5 |
| 20260507093605 | 44 | 290 | 0.0 | 0.0 | 0.00 | 0.00 | 0.00 | 84 | 1019.5 |
| 20260507093105 | 44 | 290 | 0.0 | 0.0 | 0.00 | 0.00 | 0.00 | 84 | 1019.7 |
| 20260507092604 | 44 | 291 | 0.0 | 0.0 | 0.00 | 0.00 | 0.00 | 83 | 1019.5 |
| 20260507091105 | 44 | 306 | 0.0 | 2.0 | 0.00 | 0.00 | 0.00 | 83 | 1019.5 |
| 20260507090605 | 44 | 306 | 0.0 | 2.0 | 0.00 | 0.00 | 0.00 | 82 | 1019.5 |
| 20260507090105 | 44 | 306 | 0.0 | 1.0 | 0.00 | 0.00 | 0.00 | 82 | 1019.5 |
| 20260507085605 | 44 | 306 | 0.0 | 1.0 | 0.00 | 0.00 | 0.00 | 83 | 1019.4 |
| 20260507085105 | 44 | 308 | 0.0 | 1.0 | 0.00 | 0.00 | 0.00 | 83 | 1019.4 |
| 20260507084605 | 44 | 308 | 0.0 | 1.0 | 0.00 | 0.00 | 0.00 | 83 | 1019.2 |
| 20260507084105 | 44 | 307 | 0.0 | 1.0 | 0.00 | 0.00 | 0.00 | 83 | 1019.4 |
| 20260507083604 | 44 | 307 | 0.0 | 1.0 | 0.00 | 0.00 | 0.00 | 83 | 1019.4 |
| 20260507083104 | 44 | 307 | 1.0 | 1.0 | 0.00 | 0.00 | 0.00 | 83 | 1019.5 |
| 20260507082604 | 44 | 307 | 1.0 | 1.0 | 0.00 | 0.00 | 0.00 | 83 | 1019.4 |
| 20260507081605 | 44 | 306 | 0.0 | 2.0 | 0.00 | 0.00 | 0.00 | 81 | 1019.4 |
| 20260507081105 | 45 | 306 | 1.0 | 2.0 | 0.00 | 0.00 | 0.00 | 81 | 1019.6 |
| 20260507080104 | 45 | 306 | 0.0 | 1.0 | 0.00 | 0.00 | 0.00 | 80 | 1019.4 |
| 20260507075604 | 45 | 306 | 0.0 | 2.0 | 0.00 | 0.00 | 0.00 | 80 | 1019.4 |
| 20260507075105 | 46 | 306 | 0.0 | 2.0 | 0.00 | 0.00 | 0.00 | 80 | 1019.4 |
| 20260507074605 | 46 | 306 | 1.0 | 2.0 | 0.00 | 0.00 | 0.00 | 80 | 1019.3 |
| 20260507074104 | 46 | 306 | 0.0 | 0.0 | 0.00 | 0.00 | 0.00 | 80 | 1019.4 |
| 20260507073604 | 46 | 306 | 0.0 | 0.0 | 0.00 | 0.00 | 0.00 | 79 | 1019.5 |
| 20260507072605 | 47 | 306 | 0.0 | 2.0 | 0.00 | 0.00 | 0.00 | 79 | 1019.7 |
| 20260507072105 | 47 | 306 | 0.0 | 5.0 | 0.00 | 0.00 | 0.00 | 79 | 1019.7 |
| 20260507071605 | 47 | 308 | 2.0 | 5.0 | 0.00 | 0.00 | 0.00 | 79 | 1019.6 |
| 20260507070104 | 46 | 281 | 0.0 | 0.0 | 0.00 | 0.00 | 0.00 | 80 | 1019.6 |
| 20260507065605 | 46 | 239 | 0.0 | 0.0 | 0.00 | 0.00 | 0.00 | 79 | 1019.5 |
| 20260507064104 | 47 | 227 | 0.0 | 0.0 | 0.00 | 0.00 | 0.00 | 80 | 1019.4 |
| 20260507063605 | 46 | 227 | 0.0 | 0.0 | 0.00 | 0.00 | 0.00 | 80 | 1019.4 |
| 20260507063105 | 46 | 227 | 0.0 | 0.0 | 0.00 | 0.00 | 0.00 | 79 | 1019.4 |
| 20260507062604 | 46 | 227 | 0.0 | 0.0 | 0.00 | 0.00 | 0.00 | 78 | 1019.5 |
| 20260507062104 | 47 | 227 | 0.0 | 0.0 | 0.00 | 0.00 | 0.00 | 77 | 1019.7 |
| 20260507061605 | 48 | 283 | 0.0 | 0.0 | 0.00 | 0.00 | 0.00 | 77 | 1019.8 |
| 20260507061105 | 48 | 290 | 0.0 | 0.0 | 0.00 | 0.00 | 0.00 | 77 | 1019.6 |
| 20260507060604 | 48 | 290 | 0.0 | 0.0 | 0.00 | 0.00 | 0.00 | 76 | 1019.8 |
| 20260507060105 | 49 | 290 | 0.0 | 0.0 | 0.00 | 0.00 | 0.00 | 76 | 1020.0 |
| 20260507054604 | 49 | 290 | 0.0 | 0.0 | 0.00 | 0.00 | 0.00 | 75 | 1020.1 |
| 20260507054104 | 49 | 290 | 0.0 | 0.0 | 0.00 | 0.00 | 0.00 | 75 | 1020.1 |
| 20260507053605 | 49 | 290 | 0.0 | 0.0 | 0.00 | 0.00 | 0.00 | 74 | 1020.0 |
| 20260507053105 | 49 | 290 | 0.0 | 0.0 | 0.00 | 0.00 | 0.00 | 74 | 1020.0 |
| 20260507052605 | 49 | 290 | 0.0 | 0.0 | 0.00 | 0.00 | 0.00 | 74 | 1020.2 |
| 20260507052104 | 49 | 290 | 0.0 | 0.0 | 0.00 | 0.00 | 0.00 | 74 | 1020.1 |
| 20260507051605 | 50 | 290 | 0.0 | 0.0 | 0.00 | 0.00 | 0.00 | 74 | 1020.0 |
| 20260507051105 | 50 | 290 | 0.0 | 0.0 | 0.00 | 0.00 | 0.00 | 73 | 1019.8 |
| 20260507050604 | 50 | 290 | 0.0 | 0.0 | 0.00 | 0.00 | 0.00 | 73 | 1019.8 |
| 20260507050104 | 50 | 290 | 0.0 | 0.0 | 0.00 | 0.00 | 0.00 | 72 | 1019.9 |
| 20260507045105 | 51 | 290 | 0.0 | 2.0 | 0.00 | 0.00 | 0.00 | 70 | 1019.9 |
| 20260507044604 | 52 | 290 | 0.0 | 2.0 | 0.00 | 0.00 | 0.00 | 69 | 1019.8 |
| 20260507044105 | 52 | 290 | 1.0 | 3.0 | 0.00 | 0.00 | 0.00 | 68 | 1019.7 |
| 20260507043605 | 53 | 291 | 2.0 | 3.0 | 0.00 | 0.00 | 0.00 | 67 | 1019.7 |
| 20260507042605 | 54 | 311 | 1.0 | 2.0 | 0.00 | 0.00 | 0.00 | 65 | 1019.6 |
| 20260507042104 | 54 | 313 | 0.0 | 2.0 | 0.00 | 0.00 | 0.00 | 65 | 1019.5 |
| 20260507041604 | 54 | 313 | 1.0 | 5.0 | 0.00 | 0.00 | 0.00 | 66 | 1019.4 |
| 20260507041105 | 53 | 22 | 2.0 | 5.0 | 0.00 | 0.00 | 0.00 | 66 | 1019.0 |
| 20260507040605 | 54 | 64 | 1.0 | 5.0 | 0.00 | 0.00 | 0.00 | 66 | 1018.5 |
| 20260507035604 | 54 | 62 | 2.0 | 6.0 | 0.00 | 0.00 | 0.00 | 66 | 1018.6 |
| 20260507034104 | 54 | 61 | 1.0 | 3.0 | 0.00 | 0.00 | 0.00 | 65 | 1018.7 |
| 20260507033604 | 55 | 59 | 0.0 | 2.0 | 0.00 | 0.00 | 0.00 | 64 | 1018.8 |
| 20260507032605 | 55 | 21 | 1.0 | 3.0 | 0.00 | 0.00 | 0.00 | 63 | 1018.9 |
| 20260507032105 | 55 | 24 | 1.0 | 2.0 | 0.00 | 0.00 | 0.00 | 63 | 1018.9 |
| 20260507031605 | 55 | 33 | 1.0 | 2.0 | 0.00 | 0.00 | 0.00 | 63 | 1018.8 |
| 20260507031104 | 55 | 51 | 0.0 | 3.0 | 0.00 | 0.00 | 0.00 | 63 | 1018.7 |
| 20260507030604 | 55 | 51 | 0.0 | 3.0 | 0.00 | 0.00 | 0.00 | 62 | 1018.7 |
| 20260507030105 | 56 | 43 | 1.0 | 2.0 | 0.00 | 0.00 | 0.00 | 61 | 1018.5 |
| 20260507025604 | 56 | 26 | 0.0 | 3.0 | 0.00 | 0.00 | 0.00 | 61 | 1018.6 |
| 20260507025104 | 56 | 2 | 2.0 | 3.0 | 0.00 | 0.00 | 0.00 | 61 | 1018.4 |
| 20260507024604 | 56 | 19 | 2.0 | 3.0 | 0.00 | 0.00 | 0.00 | 61 | 1018.2 |
| 20260507024104 | 56 | 27 | 1.0 | 3.0 | 0.00 | 0.00 | 0.00 | 60 | 1018.2 |
| 20260507023604 | 57 | 37 | 2.0 | 3.0 | 0.00 | 0.00 | 0.00 | 60 | 1018.1 |
| 20260507022604 | 57 | 58 | 1.0 | 3.0 | 0.00 | 0.00 | 0.00 | 59 | 1018.1 |
| 20260507022104 | 57 | 24 | 1.0 | 3.0 | 0.00 | 0.00 | 0.00 | 59 | 1018.0 |
| 20260507021604 | 57 | 43 | 2.0 | 3.0 | 0.00 | 0.00 | 0.00 | 58 | 1018.0 |
| 20260507020104 | 58 | 15 | 3.0 | 7.0 | 0.00 | 0.00 | 0.00 | 57 | 1017.8 |
| 20260507015604 | 59 | 31 | 2.0 | 6.0 | 0.00 | 0.00 | 0.00 | 56 | 1017.7 |
| 20260507015104 | 59 | 50 | 1.0 | 6.0 | 0.00 | 0.00 | 0.00 | 56 | 1017.7 |
| 20260507013605 | 60 | 51 | 2.0 | 8.0 | 0.00 | 0.00 | 0.00 | 55 | 1017.4 |
| 20260507012604 | 60 | 18 | 3.0 | 14.0 | 0.00 | 0.00 | 0.00 | 54 | 1017.2 |
| 20260507012104 | 61 | 53 | 3.0 | 14.0 | 0.00 | 0.00 | 0.00 | 53 | 1017.2 |
| 20260507011605 | 61 | 57 | 3.0 | 14.0 | 0.00 | 0.00 | 0.00 | 53 | 1017.1 |
| 20260507011105 | 61 | 40 | 4.0 | 10.0 | 0.00 | 0.00 | 0.00 | 52 | 1017.1 |
| 20260507010604 | 62 | 43 | 4.0 | 10.0 | 0.00 | 0.00 | 0.00 | 52 | 1017.0 |
| 20260507005105 | 62 | 25 | 3.0 | 12.0 | 0.00 | 0.00 | 0.00 | 52 | 1017.0 |
| 20260507004604 | 62 | 53 | 3.0 | 12.0 | 0.00 | 0.00 | 0.00 | 52 | 1017.0 |
| 20260507003604 | 63 | 34 | 2.0 | 8.0 | 0.00 | 0.00 | 0.00 | 52 | 1017.0 |
| 20260507003104 | 63 | 14 | 2.0 | 9.0 | 0.00 | 0.00 | 0.00 | 52 | 1016.9 |
| 20260507002604 | 63 | 28 | 5.0 | 12.0 | 0.00 | 0.00 | 0.00 | 51 | 1016.9 |
| 20260507002105 | 63 | 18 | 5.0 | 13.0 | 0.00 | 0.00 | 0.00 | 50 | 1016.9 |
| 20260507001604 | 64 | 29 | 7.0 | 14.0 | 0.00 | 0.00 | 0.00 | 50 | 1016.8 |
| 20260507000605 | 65 | 41 | 6.0 | 12.0 | 0.00 | 0.00 | 0.00 | 48 | 1016.8 |
| 20260507000104 | 65 | 61 | 3.0 | 13.0 | 0.00 | 0.00 | 0.00 | 49 | 1016.8 |
| 20260506235605 | 65 | 50 | 5.0 | 13.0 | 0.00 | 0.00 | 0.00 | 48 | 1016.7 |
| 20260506235104 | 66 | 7 | 4.0 | 12.0 | 0.00 | 0.00 | 0.00 | 48 | 1016.7 |
| 20260506234604 | 65 | 17 | 3.0 | 9.0 | 0.00 | 0.00 | 0.00 | 49 | 1016.7 |
| 20260506234105 | 65 | 22 | 5.0 | 12.0 | 0.00 | 0.00 | 0.00 | 48 | 1016.6 |
| 20260506233605 | 65 | 54 | 5.0 | 13.0 | 0.00 | 0.00 | 0.00 | 49 | 1016.6 |
| 20260506233104 | 66 | 2 | 6.0 | 13.0 | 0.00 | 0.00 | 0.00 | 48 | 1016.5 |
| 20260506232604 | 66 | 51 | 4.0 | 13.0 | 0.00 | 0.00 | 0.00 | 48 | 1016.4 |
| 20260506232104 | 66 | 13 | 6.0 | 13.0 | 0.00 | 0.00 | 0.00 | 48 | 1016.3 |
| 20260506231604 | 66 | 51 | 5.0 | 12.0 | 0.00 | 0.00 | 0.00 | 48 | 1016.4 |
| 20260506231104 | 66 | 23 | 4.0 | 13.0 | 0.00 | 0.00 | 0.00 | 48 | 1016.3 |
| 20260506230604 | 66 | 20 | 4.0 | 13.0 | 0.00 | 0.00 | 0.00 | 48 | 1016.3 |
| 20260506230105 | 66 | 17 | 6.0 | 13.0 | 0.00 | 0.00 | 0.00 | 48 | 1016.2 |
| 20260506225605 | 66 | 55 | 5.0 | 14.0 | 0.00 | 0.00 | 0.00 | 48 | 1016.2 |
| 20260506225105 | 66 | 1 | 5.0 | 14.0 | 0.00 | 0.00 | 0.00 | 48 | 1016.2 |
| 20260506224605 | 66 | 43 | 3.0 | 12.0 | 0.00 | 0.00 | 0.00 | 49 | 1016.0 |
| 20260506224104 | 66 | 16 | 6.0 | 12.0 | 0.00 | 0.00 | 0.00 | 48 | 1016.1 |
| 20260506223605 | 67 | 31 | 3.0 | 10.0 | 0.00 | 0.00 | 0.00 | 47 | 1016.0 |
| 20260506223104 | 67 | 52 | 5.0 | 10.0 | 0.00 | 0.00 | 0.00 | 48 | 1015.9 |
| 20260506221604 | 66 | 56 | 5.0 | 12.0 | 0.00 | 0.00 | 0.00 | 48 | 1015.7 |
| 20260506221105 | 67 | 39 | 5.0 | 12.0 | 0.00 | 0.00 | 0.00 | 48 | 1015.7 |
| 20260506220605 | 67 | 71 | 3.0 | 18.0 | 0.00 | 0.00 | 0.00 | 49 | 1015.7 |
| 20260506220104 | 66 | 70 | 5.0 | 18.0 | 0.00 | 0.00 | 0.00 | 49 | 1015.8 |
| 20260506215604 | 66 | 51 | 9.0 | 18.0 | 0.00 | 0.00 | 0.00 | 48 | 1015.8 |
| 20260506214605 | 66 | 43 | 3.0 | 14.0 | 0.00 | 0.00 | 0.00 | 49 | 1015.8 |
| 20260506214104 | 66 | 55 | 5.0 | 14.0 | 0.00 | 0.00 | 0.00 | 50 | 1015.9 |
| 20260506213604 | 66 | 55 | 6.0 | 14.0 | 0.00 | 0.00 | 0.00 | 50 | 1015.9 |
| 20260506213104 | 65 | 0 | 5.0 | 12.0 | 0.00 | 0.00 | 0.00 | 51 | 1015.9 |
| 20260506212604 | 65 | 65 | 6.0 | 12.0 | 0.00 | 0.00 | 0.00 | 52 | 1016.0 |
| 20260506212104 | 64 | 29 | 3.0 | 16.0 | 0.00 | 0.00 | 0.00 | 53 | 1016.2 |
| 20260506211604 | 64 | 24 | 6.0 | 16.0 | 0.00 | 0.00 | 0.00 | 52 | 1016.2 |
| 20260506211105 | 64 | 44 | 5.0 | 13.0 | 0.00 | 0.00 | 0.00 | 53 | 1016.3 |
| 20260506210604 | 64 | 60 | 6.0 | 12.0 | 0.00 | 0.00 | 0.00 | 53 | 1016.3 |
| 20260506205604 | 64 | 354 | 7.0 | 13.0 | 0.00 | 0.00 | 0.00 | 51 | 1016.4 |